Regional Weather Roundup
Issued by NWS

Home | Current Version | Previous Version | Text Only | Print | Product List | Glossary On
Versions: 1 2 3 4 5 6 7 8 9 10 11 12 13 14 15 16 17 18 19 20 21 22 23 24 25 26 27 28 29 30 31 32 33 34 35 36 37 38 39 40 41 42 43 44 45 46 47 48 49 50
000
ASUS43 KOAX 171410
RWRNE

WEATHER ROUNDUP FOR NEBRASKA
NATIONAL WEATHER SERVICE OMAHA NE
800 AM CST WED DEC 17 2014

NOTES: SATELLITE DATA IS BEING USED TO AUGMENT CLOUD COVER ABOVE
       12000 FEET.
       "FAIR" INDICATES FEW OR NO CLOUDS BELOW 12,000 FEET WITH NO
       SIGNIFICANT WEATHER AND/OR OBSTRUCTIONS TO VISIBILITY.

  * THESE STATIONS DO NOT REPORT WEATHER SUCH AS RAIN...SNOW OR FOG.

NEZ001>004-019>022-054>056-171500-
NEBRASKA PANHANDLE

CITY           SKY/WX    TMP DP  RH WIND       PRES   REMARKS
SCOTTSBLUFF    CLOUDY    15  12  88 SE3       30.01S
ALLIANCE       CLOUDY    21  19  92 S20       30.02S WCI   6
CHADRON        MOCLDY     5   2  87 W3        30.05R FOG
KIMBALL        MOCLDY    13  11  92 CALM      29.96S
SIDNEY         FOG       18  16  92 S13       30.02F VSB 1/2 WCI   5
$$

NEZ057>060-069>072-079>082-171500-
SOUTHWEST NEBRASKA

CITY           SKY/WX    TMP DP  RH WIND       PRES   REMARKS
NORTH PLATTE   CLOUDY    21  18  88 SE6       30.16F WCI  13
IMPERIAL       CLOUDY    21  19  92 SE8       30.13R WCI  11
LEXINGTON      CLOUDY    21  19  93 SE6       30.21S WCI  14
MCCOOK         CLOUDY    21  19  92 SE8       30.19R WCI  11
OGALLALA       CLOUDY    23  22  96 S7        30.11F FOG     WCI  14
$$

NEZ005>010-023>029-035>040-094-171500-
NORTH CENTRAL NEBRASKA

CITY           SKY/WX    TMP DP  RH WIND       PRES   REMARKS
VALENTINE      CLOUDY    18  16  92 S13       30.18R WCI   5
AINSWORTH      CLOUDY    17  16  95 SE7       30.19S FOG     WCI   8
BROKEN BOW     CLOUDY    19  17  92 SE7       30.21S WCI  10
O`NEILL        CLOUDY    18  17  97 CALM      30.26F
ORD            CLOUDY    18  16  92 SE5       30.26R WCI  11
THEDFORD       CLOUDY    20  19  94 SE8       30.16S WCI  10
$$

NEZ041-046>049-061>064-073>077-083>087-171500-
SOUTH CENTRAL NEBRASKA

CITY           SKY/WX    TMP DP  RH WIND       PRES   REMARKS
GRAND ISLAND   CLOUDY    20  17  88 VRB6      30.28S WCI  12
AURORA         CLOUDY    21  19  91 E6        30.28S WCI  13
HASTINGS       CLOUDY    20  17  88 E5        30.26R WCI  13
HEBRON         CLOUDY    22  18  83 E5        30.30S WCI  16
HOLDREGE       CLOUDY    21  19  95 SE8       30.23S FOG     WCI  11
KEARNEY *      CLOUDY    19  18  93 E6        30.25S WCI  11
YORK           CLOUDY    21  19  93 E6        30.30R WCI  14
$$

NEZ011>018-030>034-042>045-171500-
NORTHEAST NEBRASKA

CITY           SKY/WX    TMP DP  RH WIND       PRES   REMARKS
NORFOLK        CLOUDY    19  15  84 SE3       30.31R
ALBION         CLOUDY    19  15  84 E3        30.29S
BLAIR          MOCLDY    17  13  84 CALM      30.33S
COLUMBUS *     CLOUDY    19  10  68 E8        30.32F WCI   9
FREMONT        MOCLDY    19  14  82 CALM      30.35R
TEKAMAH        MOCLDY    16  11  80 N6        30.36S WCI   7
WAYNE          PTCLDY    11   8  87 N5        30.33S WCI   3
$$

NEZ050>053-065>068-078-088>093-171500-
SOUTHEAST NEBRASKA

CITY           SKY/WX    TMP DP  RH WIND       PRES   REMARKS
LINCOLN        MOCLDY    21  15  78 NE8       30.35S WCI  11
OMAHA EPPLEY   MOCLDY    18  13  80 N5        30.37R WCI  11
BEATRICE       CLOUDY    22  18  85 NE5       30.32S WCI  15
FALLS CITY     CLOUDY    20  15  81 NE8       30.34F WCI  10
NEBRASKA CITY  CLOUDY    19  13  76 NE6       30.34F WCI  11
PLATTSMOUTH    CLOUDY    17  12  78 CALM      30.35R
$$

NEZ044-045-051>053-067-171500-
OMAHA AREA

CITY           SKY/WX    TMP DP  RH WIND       PRES   REMARKS
OMAHA EPPLEY   MOCLDY    18  13  80 N5        30.37R WCI  11
BLAIR          MOCLDY    17  13  84 CALM      30.33S
FREMONT        MOCLDY    19  14  82 CALM      30.35R
MILLARD        MOCLDY    19  13  75 N3        30.36R
OFFUTT AFB     MOCLDY    17  12  80 CALM      30.36R
PLATTSMOUTH    CLOUDY    17  12  78 CALM      30.35R
WAHOO          PTSUNNY   20  15  81 N5        30.34S WCI  14
$$



USA.gov is the U.S. government's official web portal to all federal, state and local government web resources and services.